Location: Trout Lake
(45.9980°N, 121.5270°W)
Time: 19:56:25
(UTC-08:00)

SL-8 R/B - Pass Details

Date: 06 December 2023
Orbit: 653 x 663 km, 48.4° (Epoch: 22 February)

Event Time Altitude Azimuth Distance (km) Brightness Sun altitude
Rises 17:26:50 0° 290° (WNW) 2,979 7.9 -11.0°
Reaches altitude 10° 17:29:13 10° 285° (WNW) 2,067 7.1 -11.4°
Maximum altitude 17:33:51 53° 210° (SSW) 812 4.5 -12.2°
Drops below altitude 10° 17:38:28 10° 134° (SE) 2,066 6.0 -12.9°
Enters shadow 17:40:45 - 129° (SE) 2,939 6.7 -13.3°
